1998-067NX

Last updated on Thu Aug 16 2018 00:15:06 GMT+0000 (Coordinated Universal Time)

1 43549U 98067NX 18227.86295392 .00007334 00000-0 11478-3 0 9990 2 43549 51.6423 81.1119 0007112 76.2090 283.9684 15.54870299 4806
UTC large
Height (km)
Speed (km/s)
/
Latitude / Longitude
Inclination (degrees)
Orbital Period (minutes)
Azimuth
Elevation
Range (km)
Doppler Factor

Next 0 passes for location: London (51.5072 / 0.1276)

Sorry there are no passes over London.